{"data":{"norad_id":57229,"epoch":"2026-05-25T04:48:21.974976Z","epoch_age_seconds":51070,"freshness":"FRESH","line1":"1 57229U 23094M   26145.20025434  .00000016  00000+0  10119-4 0  9993","line2":"2 57229  43.0062 318.8996 0002038 274.9651  85.0968 15.27576646158811","mean_motion":15.27576646,"eccentricity":0.0002038,"inclination_deg":43.0062,"raan_deg":318.8996,"arg_perigee_deg":274.9651,"mean_anomaly_deg":85.0968,"bstar":1.0119e-5,"rev_number":15881,"period_min":94.266955688978,"perigee_km":481.66082736747,"apogee_km":484.45745091378,"semimajor_km":6861.1961391406,"source":"CELESTRAK","updated_at":"2026-05-25T13:38:18.254011Z"}}